Weather History for KGKJ - December, 2012

Change the Weather History Date:

Thursday, December 13, 2012

  Actual Average Record
Temperature  
Mean Temperature 34 °F -  
Max Temperature 42 °F 39 °F 61 °F (1965)
Min Temperature 25 °F 23 °F -5 °F (1962)
Degree Days  
Heating Degree Days 32    
Moisture  
Dew Point 20 °F    
Average Humidity 61    
Maximum Humidity 81    
Minimum Humidity 38    
Precipitation  
Precipitation 0.00 in - - ()
Sea Level Pressure  
Sea Level Pressure 30.38 in    
Wind  
Wind Speed 3 mph (South)    
Max Wind Speed 9 mph    
Max Gust Speed -    
Visibility 10 miles    
Events      
Averages and records for this station are not official NWS values.
T = Trace of Precipitation, MM = Missing Value Source: NWS Daily Summary

Daily Weather History Graph

Daily Weather History Graph

Search for Another Location

Airport or City:

Trip Planner

Search our weather history database for the weather conditions in past years. The results will help you decide how hot, cold, wet, or windy it might be!

Date:

Astronomy

Dec. 13, 2012 Rise Set
Actual Time 7:39 AM EST 4:51 PM EST
Civil Twilight 7:08 AM EST 5:22 PM EST
Nautical Twilight 6:33 AM EST 5:57 PM EST
Astronomical Twilight 5:59 AM EST 6:31 PM EST
Moon 7:46 AM EST (12/13) 5:32 PM EST (12/13)
Length of Visible Light 10h 14m
Length of Day
9h 11m
New Moon, 0% of the Moon is Illuminated
Dec 13
New Moon
Dec 20
First Quarter
Dec 28
Full
Jan 4
Last Quarter
Jan 11
New

Hourly Weather History & Observations

Time (EST) Temp. Windchill Dew Point Humidity Pressure Visibility Wind Dir Wind Speed Gust Speed Precip Events Conditions
12:53 AM 28.9 °F 23.9 °F 21.0 °F 72% 30.42 in 10.0 mi South 4.6 mph - N/A   Clear
1:53 AM 28.9 °F - 21.0 °F 72% 30.41 in 10.0 mi Calm Calm - N/A   Clear
2:53 AM 28.0 °F - 21.0 °F 75% 30.42 in 10.0 mi Calm Calm - N/A   Clear
3:53 AM 28.0 °F - 19.9 °F 72% 30.41 in 10.0 mi Calm Calm - N/A   Clear
4:53 AM 28.0 °F - 19.9 °F 72% 30.43 in 10.0 mi Calm Calm - N/A   Clear
5:53 AM 28.0 °F - 19.9 °F 72% 30.44 in 10.0 mi Calm Calm - N/A   Clear
6:53 AM 27.0 °F 23.0 °F 19.9 °F 75% 30.45 in 10.0 mi SE 3.5 mph - N/A   Clear
7:53 AM 25.0 °F - 19.9 °F 81% 30.44 in 9.0 mi Calm Calm - N/A   Clear
8:53 AM 28.9 °F 25.2 °F 21.0 °F 72% 30.44 in 10.0 mi SE 3.5 mph - N/A   Clear
9:53 AM 34.0 °F - 21.9 °F 61% 30.44 in 10.0 mi Calm Calm - N/A   Clear
10:53 AM 36.0 °F 33.3 °F 23.0 °F 59% 30.43 in 10.0 mi Variable 3.5 mph - N/A   Clear
11:53 AM 37.9 °F 31.5 °F 21.9 °F 53% 30.39 in 10.0 mi South 9.2 mph - N/A   Clear
12:53 PM 39.9 °F 34.5 °F 21.9 °F 49% 30.36 in 10.0 mi South 8.1 mph - N/A   Clear
1:53 PM 41.0 °F 35.8 °F 19.9 °F 43% 30.36 in 10.0 mi South 8.1 mph - N/A   Clear
2:53 PM 42.1 °F 37.7 °F 19.0 °F 40% 30.35 in 10.0 mi SW 6.9 mph - N/A   Clear
3:53 PM 41.0 °F 36.4 °F 17.1 °F 38% 30.34 in 10.0 mi SSW 6.9 mph - N/A   Clear
4:53 PM 39.0 °F 36.8 °F 18.0 °F 43% 30.32 in 10.0 mi South 3.5 mph - N/A   Clear
8:53 PM 33.1 °F 30.0 °F 19.0 °F 56% 30.30 in 10.0 mi SSE 3.5 mph - N/A   Clear
9:53 PM 34.0 °F 31.0 °F 19.0 °F 54% 30.29 in 10.0 mi SSE 3.5 mph - N/A   Clear
10:53 PM 33.1 °F 27.7 °F 19.9 °F 59% 30.27 in 10.0 mi Variable 5.8 mph - N/A   Clear
11:53 PM 33.1 °F 27.7 °F 19.9 °F 59% 30.26 in 10.0 mi South 5.8 mph - N/A   Clear